Left ArrowRight Arrow

-33.8178, 151.00348

Hourly Observations for January 7, 2016

Temp ( °F °C ) Dew Point ( °F °C ) Humidity (%) Winds ( mph kmh ) Pressure ( in mb ) Visibility ( mi km ) Precip ( " mm )
12:00 am 00:00 Mostly Cloudy with Drizzle 66 19 61 16 83 83 S 20 31 29.91 1013 2 4 N/A
12:30 am 00:30 Mostly Cloudy with Showers 66 19 61 16 83 83 S 21 33 29.91 1013 2 4 N/A
1:00 am 01:00 Mostly Cloudy with Showers 64 18 63 17 94 94 SSW 23 37 29.91 1013 2 4 N/A
1:30 am 01:30 Mostly Cloudy with Showers 63 17 61 16 94 94 SSW 15 24 29.88 1012 2 4 N/A
1:32 am 01:32 Mostly Cloudy with Showers 63 17 63 17 100 100 SSW 17 28 29.88 1012 2 4 N/A
2:00 am 02:00 Mostly Cloudy with Showers 64 18 61 16 88 88 SSW 18 30 29.88 1012 2 4 N/A
2:30 am 02:30 Mostly Cloudy with Showers 63 17 61 16 94 94 SW 18 30 29.88 1012 2 4 N/A
3:00 am 03:00 Mostly Cloudy with Showers 64 18 61 16 88 88 SSW 16 26 29.85 1011 2 4 N/A
3:30 am 03:30 Mostly Cloudy with Drizzle 64 18 61 16 88 88 SW 20 31 29.85 1011 2 4 N/A
4:00 am 04:00 Mostly Cloudy with Drizzle 64 18 61 16 88 88 SW 22 35 29.85 1011 2 4 N/A
4:30 am 04:30 Mostly Cloudy with Showers 64 18 61 16 88 88 SW 22 35 29.85 1011 2 4 N/A
5:00 am 05:00 Mostly Cloudy with Showers 63 17 59 15 88 88 SSW 23 37 29.85 1011 2 4 N/A
5:30 am 05:30 Mostly Cloudy with Showers 63 17 59 15 88 88 SW 23 37 29.88 1012 2 4 N/A
6:00 am 06:00 Mostly Cloudy with Showers 64 18 59 15 83 83 SW 22 35 29.88 1012 2 4 N/A
6:07 am 06:07 Mostly Cloudy with Showers 63 17 59 15 88 88 SSW 23 37 29.88 1012 2 4 N/A
6:19 am 06:19 Mostly Cloudy with Showers 63 17 59 15 88 88 SSW 23 37 29.88 1012 2 4 N/A
6:30 am 06:30 Mostly Cloudy with Showers 63 17 61 16 94 94 SW 22 35 29.88 1012 2 4 N/A
7:00 am 07:00 Mostly Cloudy with Showers 63 17 61 16 94 94 SSW 21 33 29.88 1012 2 4 N/A
7:14 am 07:14 Mostly Cloudy with Showers 64 18 61 16 88 88 SSW 23 37 29.88 1012 2 4 N/A
7:30 am 07:30 Mostly Cloudy with Showers 64 18 59 15 83 83 SSW 24 39 29.88 1012 2 4 N/A
8:00 am 08:00 Mostly Cloudy with Showers 64 18 59 15 83 83 SSW 22 35 29.91 1013 2 4 N/A
8:19 am 08:19 Mostly Cloudy with Showers 64 18 61 16 88 88 SSW 25 41 29.91 1013 2 4 N/A
8:30 am 08:30 Mostly Cloudy with Showers 64 18 61 16 88 88 SSW 25 41 29.91 1013 2 4 N/A
8:35 am 08:35 Mostly Cloudy with Showers 63 17 61 16 94 94 SSW 23 37 29.94 1014 3 5 N/A
8:39 am 08:39 Mostly Cloudy with Showers 63 17 61 16 94 94 SSW 20 31 29.94 1014 3 5 N/A
9:00 am 09:00 Mostly Cloudy with Showers 64 18 61 16 88 88 SSW 22 35 29.94 1014 3 5 N/A
9:30 am 09:30 Mostly Cloudy with Showers 66 19 59 15 78 78 SSW 22 35 29.94 1014 3 5 N/A
10:00 am 10:00 Mostly Cloudy with Showers 66 19 61 16 83 83 SSW 22 35 29.94 1014 3 5 N/A
10:30 am 10:30 Mostly Cloudy with Showers 68 20 59 15 73 73 SSW 29 46 29.94 1014 3 5 N/A
11:00 am 11:00 Mostly Cloudy with Showers 68 20 59 15 73 73 SSW 28 44 29.94 1014 3 5 N/A
11:30 am 11:30 Mostly Cloudy with Showers 70 21 61 16 73 73 SSW 26 43 29.94 1014 3 5 N/A
12:00 pm 12:00 Partly Cloudy with Showers Nearby 70 21 59 15 69 69 SSW 30 48 29.94 1014 30 48 N/A
12:20 pm 12:20 Partly Cloudy with Showers Nearby 70 21 57 14 64 64 SSW 25 41 29.94 1014 30 48 N/A
1:00 pm 13:00 Partly Cloudy 70 21 61 16 73 73 SSW 29 46 29.94 1014 30 48 N/A
1:33 pm 13:33 Partly Cloudy 70 21 59 15 69 69 SSW 25 41 29.94 1014 30 48 N/A
2:00 pm 14:00 Mostly Cloudy with Showers Nearby 70 21 59 15 69 69 SSW 23 37 29.97 1015 30 48 N/A
2:17 pm 14:17 Windy with Rain Showers Likely 68 20 61 16 78 78 SSW 35 56 29.97 1015 30 48 N/A
2:22 pm 14:22 Windy with Rain Showers Likely 66 19 63 17 88 88 SSW 29 46 29.97 1015 30 48 N/A
2:30 pm 14:30 Windy with Rain Showers Likely 66 19 63 17 88 88 SSW 25 41 29.97 1015 30 48 N/A
3:00 pm 15:00 Windy with Rain Showers Likely 66 19 61 16 83 83 SSW 24 39 29.97 1015 30 48 N/A
3:30 pm 15:30 Windy with Rain Showers Likely 66 19 61 16 83 83 SSW 23 37 29.97 1015 30 48 N/A
4:00 pm 16:00 Mostly Cloudy with Showers Nearby 68 20 59 15 73 73 SSW 24 39 29.97 1015 30 48 N/A
4:33 pm 16:33 Mostly Cloudy 70 21 59 15 69 69 SSW 23 37 29.97 1015 30 48 N/A
5:00 pm 17:00 Mostly Sunny 70 21 59 15 69 69 SSW 24 39 29.97 1015 30 48 N/A
5:30 pm 17:30 Partly Cloudy 70 21 59 15 69 69 SSW 24 39 29.97 1015 30 48 N/A
6:00 pm 18:00 Partly Cloudy 70 21 59 15 69 69 S 25 41 30.00 1016 30 48 N/A
6:30 pm 18:30 Partly Cloudy 70 21 59 15 69 69 S 24 39 30.00 1016 30 48 N/A
7:00 pm 19:00 Partly Cloudy 70 21 57 14 64 64 S 22 35 30.00 1016 30 48 N/A
7:30 pm 19:30 Partly Cloudy 70 21 57 14 64 64 S 21 33 30.03 1017 30 48 N/A
8:00 pm 20:00 Mostly Cloudy 68 20 57 14 69 69 S 17 28 30.03 1017 30 48 N/A
8:25 pm 20:25 Partly Cloudy 68 20 57 14 69 69 SSW 17 28 30.03 1017 30 48 N/A
9:00 pm 21:00 Mostly Clear 68 20 57 14 69 69 S 15 24 30.06 1018 30 48 N/A
9:30 pm 21:30 Partly Cloudy 68 20 59 15 73 73 SSW 12 19 30.06 1018 30 48 N/A
10:00 pm 22:00 Partly Cloudy 66 19 57 14 73 73 SW 10 17 30.06 1018 30 48 N/A
10:30 pm 22:30 Mostly Clear 66 19 55 13 68 68 WSW 9 15 30.06 1018 30 48 N/A
11:00 pm 23:00 Mostly Clear 66 19 57 14 73 73 W 9 15 30.06 1018 30 48 N/A
11:30 pm 23:30 Mostly Clear 64 18 57 14 78 78 W 9 15 30.06 1018 30 48 N/A

Powered by Vaisala Xweather